Other Surface Observations
Issued by NWS Charleston, SC

Home | Current Version | Previous Version | Text Only | Print | Product List | Glossary On
Versions: 1 2 3 4 5 6 7 8 9 10 11 12 13 14 15 16 17 18 19 20 21 22 23 24 25 26 27 28 29 30 31 32 33 34 35 36 37 38 39 40 41 42 43 44 45 46 47 48 49 50
000
SXUS52 KCHS 290925
OSOCHS

MARINE OBSERVATIONS
NATIONAL WEATHER SERVICE CHARLESTON SC
400 AM EST MON DEC 29 2014

...DOWNTOWN CHARLESTON AND HARBOR...

CITY           SKY/WX    TMP DP  RH WIND       PRES   REMARKS
WATERFRONT PRK   N/A     63 N/A N/A SW5         N/A
FORT JOHNSON   NOT AVBL

...LAKE MOULTRIE...

CITY           SKY/WX    TMP DP  RH WIND       PRES   REMARKS
PINOPOLIS        N/A    N/A N/A N/A VRB2      29.94F

...LAKE AND SUPPLEMENTAL COASTAL OBSERVATIONS...

STATION/POSITION TIME  TEMP    WIND        PRES    WAVE   SWELL
                       AIR SEA DIR/SP/G            HT/PER HT/PER/DIR
                 (UTC) (F)     (DEG/KT/KT) (MB)    (FT/S) (FT/S/D)
FORT PULASKI     0900   60 57  220/  2/  3 1017.6S
SAPELO ISLAND    0900   61     230/  6     1017.0S
UPR LAKE MARION  NOT AVBL
WINYAH BAY       0900   58     220/  1     1016.0S
LAKE MURRAY      0800   57      CALM  /  1 1015.9S
ACE BASIN NERRS  0900   56        CALM     1017.0S


...C-MAN AND BUOY OBSERVATIONS...

STATION/POSITION TIME  TEMP    WIND        PRES    WAVE   SWELL
                       AIR SEA DIR/SP/G            HT/PER HT/PER/DIR
                 (UTC) (F)     (DEG/KT/KT) (MB)    (FT/S) (FT/S/D)
BUOY 41004       0900   72 73  220/ 10/ 14 1016.2F   3/13   2/13
BUOY 41008       0900   62 59  200/ 12/ 14 1016.7F   2/14   2/100/14
FOLLY BEACH CMAN 0900   60     240/  7/ 10 1017.3F
CAPERS NS BUOY   0800   59     260/  4/  6   N/A
FRIPP NS BUOY    NOT AVBL
5E ST. MARYS GA  0900      62                N/A     2/15   2/ 90/15


STATION/POSITION TIME  TEMP    WIND        PRES    WAVE   SWELL
                       AIR SEA DIR/SP/G            HT/PER HT/PER/DIR
                 (UTC) (F)     (DEG/KT/KT) (MB)    (FT/S) (FT/S/D)
FRYING PAN BUOY  0900   64 68  260/  6/  6 1017.3F   2/13   2/100/13
BUOY 41025       0900   63                 1017.3F   3/13
CAPE LOOKOUT NC  0900   59      40/  5/  5 1016.5F
BUOY 41002       0848   74 74  220/ 14/ 17 1019.3F   4/13   3/ 80/13
BUOY 41010       0900   76 77  180/ 12/ 14 1019.6F   4/14   3/100/14
ST AUGUSTINE FL  0900   64     250/  5/  6 1019.0F

$$



USA.gov is the U.S. government's official web portal to all federal, state and local government web resources and services.